User: anonymous
Location: Observatorio Las Palmas
(29.0667°N, 110.9333°W)
Time: 20:42:25
(UTC-07:00)
Language:

Skynet4D Del rocket - Orbit

View from above orbital plane
View from above orbital plane
View from above satellite
View from above satellite

Ground track
Ground track

The orbit data is extracted from the following two-line orbital elements,

1 25135U 98002B   14202.01995213  .00000113  00000-0 -25557-5 0  1924
2 25135 026.8873 021.4955 0356669 299.3158 212.7948 13.62255018823560
Epoch (UTC): 21 July 2014 00:28:43
Eccentricity: 0.0356669
inclination: 26.8873°
perigee height: 763 km
apogee height: 1291 km
right ascension of ascending node: 21.4955°
argument of perigee: 299.3158°
revolutions per day: 13.62255018
mean anomaly at epoch: 212.7948°
orbit number at epoch: 82356

The dashed part of the orbit path shows where the satellite is in the earth's shadow,  

DLR